H1 CPF  2 ESA 2023  1  5  3   5  1 cryosat2
H2  1001301 8006    36508 2023  1  5  0  0  0 2023  1 10  0  0  0   180 1 1  0 0 0  1
H9
10 0 59949  43200.000000  0      -4729124.684      -5254276.064       -681953.785
10 0 59949  43380.000000  0      -4659685.536      -4972326.668      -2003266.581
10 0 59949  43560.000000  0      -4413788.283      -4516551.058      -3252360.958
10 0 59949  43740.000000  0      -3996120.482      -3908010.792      -4384332.649
10 0 59949  43920.000000  0      -3418128.681      -3172997.245      -5358613.659
10 0 59949  44100.000000  0      -2697685.411      -2341875.260      -6140406.227
10 0 59949  44280.000000  0      -1858505.905      -1447809.633      -6701880.152
10 0 59949  44460.000000  0       -929341.515       -525432.849      -7023103.914
10 0 59949  44640.000000  0         57012.712        390489.512      -7092689.968
10 0 59949  44820.000000  0       1064862.235       1266347.783      -6908159.419
10 0 59949  45000.000000  0       2056881.726       2070897.357      -6476025.923
10 0 59949  45180.000000  0       2995476.407       2776360.317      -5811593.995
10 0 59949  45360.000000  0       3844194.516       3359384.522      -4938465.554
10 0 59949  45540.000000  0       4569145.683       3801831.264      -3887765.387
10 0 59949  45720.000000  0       5140378.466       4091364.700      -2697088.109
10 0 59949  45900.000000  0       5533150.616       4221812.939      -1409185.612
10 0 59949  46080.000000  0       5729029.856       4193280.680        -70435.292
10 0 59949  46260.000000  0       5716764.252       4012002.269       1270854.974
10 0 59949  46440.000000  0       5492873.494       3689940.307       2566234.506
10 0 59949  46620.000000  0       5061923.583       3244146.663       3768913.053
10 0 59949  46800.000000  0       4436465.457       2695921.162       4835495.654
10 0 59949  46980.000000  0       3636646.850       2069813.954       5727568.079
10 0 59949  47160.000000  0       2689518.534       1392529.630       6413076.581
10 0 59949  47340.000000  0       1628072.460        691782.866       6867447.905
10 0 59949  47520.000000  0        490062.540         -4835.925       7074427.810
10 0 59949  47700.000000  0       -683353.752       -670942.252       7026629.220
10 0 59949  47880.000000  0      -1849106.799      -1282355.288       6725776.215
10 0 59949  48060.000000  0      -2963790.699      -1817974.781       6182640.535
10 0 59949  48240.000000  0      -3985275.363      -2260508.663       5416681.930
10 0 59949  48420.000000  0      -4874317.058      -2597037.865       4455393.640
10 0 59949  48600.000000  0      -5596099.551      -2819395.989       3333347.358
10 0 59949  48780.000000  0      -6121637.987      -2924343.636       2090970.921
10 0 59949  48960.000000  0      -6428989.585      -2913536.483        773093.993
10 0 59949  49140.000000  0      -6504204.091      -2793283.834       -572697.976
10 0 59949  49320.000000  0      -6341958.257      -2574106.066      -1897827.917
10 0 59949  49500.000000  0      -5945836.657      -2270116.024      -3154533.275
10 0 59949  49680.000000  0      -5328245.401      -1898259.856      -4297624.878
10 0 59949  49860.000000  0      -4509973.169      -1477460.735      -5286124.452
10 0 59949  50040.000000  0      -3519427.504      -1027711.076      -6084717.608
10 0 59949  50220.000000  0      -2391588.495       -569158.922      -6664971.242
10 0 59949  50400.000000  0      -1166734.198       -121233.185      -7006284.566
10 0 59949  50580.000000  0        111008.952        298155.384      -7096557.868
10 0 59949  50760.000000  0       1395236.716        673311.760      -6932580.755
10 0 59949  50940.000000  0       2638922.883        991331.417      -6520140.262
10 0 59949  51120.000000  0       3796117.118       1242539.307      -5873841.474
10 0 59949  51300.000000  0       4823631.985       1420779.698      -5016636.643
10 0 59949  51480.000000  0       5682668.351       1523546.622      -3979072.827
10 0 59949  51660.000000  0       6340322.912       1551952.777      -2798260.129
10 0 59949  51840.000000  0       6770910.051       1510535.820      -1516582.926
10 0 59949  52020.000000  0       6957035.197       1406910.254       -180185.599
10 0 59949  52200.000000  0       6890351.825       1251278.206       1162714.501
10 0 59949  52380.000000  0       6571956.767       1055825.490       2463610.290
10 0 59949  52560.000000  0       6012403.342        834032.160       3675510.359
10 0 59949  52740.000000  0       5231322.731        599935.538       4754681.658
10 0 59949  52920.000000  0       4256680.005        367388.398       5662248.995
10 0 59949  53100.000000  0       3123709.714        149350.065       6365592.719
10 0 59949  53280.000000  0       1873581.829        -42753.665       6839492.491
10 0 59949  53460.000000  0        551868.142       -199571.242       7066991.667
10 0 59949  53640.000000  0       -793138.432       -314249.377       7039969.114
10 0 59949  53820.000000  0      -2112190.950       -382722.140       6759405.005
10 0 59949  54000.000000  0      -3356884.578       -403854.871       6235344.254
10 0 59949  54180.000000  0      -4481432.071       -379438.819       5486561.888
10 0 59949  54360.000000  0      -5444369.732       -314038.060       4539930.200
10 0 59949  54540.000000  0      -6210129.244       -214696.556       3429489.582
10 0 59949  54720.000000  0      -6750406.053        -90517.075       2195246.451
10 0 59949  54900.000000  0      -7045267.527         47870.209        881734.911
10 0 59949  55080.000000  0      -7083942.044        188921.471       -463616.141
10 0 59949  55260.000000  0      -6865238.199        320843.437      -1792242.082
10 0 59949  55440.000000  0      -6397570.764        432272.443      -3056244.362
10 0 59949  55620.000000  0      -5698600.852        512931.026      -4210157.424
10 0 59949  55800.000000  0      -4794502.945        554228.317      -5212604.151
10 0 59949  55980.000000  0      -3718909.751        549771.515      -6027764.341
10 0 59949  56160.000000  0      -2511596.641        495763.554      -6626610.376
10 0 59949  56340.000000  0      -1216971.574        391270.289      -6987878.339
10 0 59949  56520.000000  0        117566.516        238348.913      -7098761.626
10 0 59949  56700.000000  0       1443342.495         42032.008      -6955322.051
10 0 59949  56880.000000  0       2712149.719       -189835.732      -6562620.977
10 0 59949  57060.000000  0       3877978.062       -446901.266      -5934561.734
10 0 59949  57240.000000  0       4898673.335       -716738.821      -5093442.572
10 0 59949  57420.000000  0       5737478.503       -985405.566      -4069227.824
10 0 59949  57600.000000  0       6364405.927      -1238096.835      -2898538.880
10 0 59949  57780.000000  0       6757376.349      -1459873.179      -1623383.402
10 0 59949  57960.000000  0       6903069.276      -1636426.239       -289658.061
10 0 59949  58140.000000  0       6797434.571      -1754842.447       1054523.440
10 0 59949  58320.000000  0       6445831.412      -1804324.410       2360610.009
10 0 59949  58500.000000  0       5862780.025      -1776829.843       3581420.959
10 0 59949  58680.000000  0       5071337.262      -1667590.890       4672896.676
10 0 59949  58860.000000  0       4102134.979      -1475487.994       5595711.358
10 0 59949  59040.000000  0       2992137.589      -1203257.901       6316688.445
10 0 59949  59220.000000  0       1783178.816       -857529.068       6809968.230
10 0 59949  59400.000000  0        520349.642       -448683.327       7057897.217
10 0 59949  59580.000000  0       -749701.815          9453.238       7051622.114
10 0 59949  59760.000000  0      -1980493.580        500079.025       6791379.943
10 0 59949  59940.000000  0      -3127404.188       1004031.850       6286487.338
10 0 59949  60120.000000  0      -4149290.261       1500531.661       5555030.005
10 0 59949  60300.000000  0      -5009982.340       1968027.479       4623254.539
10 0 59949  60480.000000  0      -5679605.771       2385118.909       3524663.051
10 0 59949  60660.000000  0      -6135666.600       2731513.634       2298831.042
10 0 59949  60840.000000  0      -6363857.776       2988977.250        989986.408
10 0 59949  61020.000000  0      -6358545.128       3142228.945       -354609.360
10 0 59949  61200.000000  0      -6122898.374       3179731.897      -1686411.803
10 0 59949  61380.000000  0      -5668661.819       3094335.476      -2957397.366
10 0 59949  61560.000000  0      -5015573.194       2883735.071      -4121840.261
10 0 59949  61740.000000  0      -4190467.446       2550724.574      -5137976.753
10 0 59949  61920.000000  0      -3226122.588       2103233.346      -5969488.448
10 0 59949  62100.000000  0      -2159914.901       1554152.139      -6586756.410
10 0 59949  62280.000000  0      -1032344.399        920957.374      -6967859.120
10 0 59949  62460.000000  0        114507.442        225149.230      -7099287.719
10 0 59949  62640.000000  0       1238527.373       -508472.767      -6976379.708
10 0 59949  62820.000000  0       2299090.768      -1252680.041      -6603472.313
10 0 59949  63000.000000  0       3258508.276      -1978806.768      -5993765.555
10 0 59949  63180.000000  0       4083358.135      -2657834.893      -5168901.677
10 0 59949  63360.000000  0       4745668.357      -3261545.339      -4158258.675
10 0 59949  63540.000000  0       5223899.484      -3763689.571      -2997960.263
10 0 59949  63720.000000  0       5503693.094      -4141131.874      -1729628.109
10 0 59949  63900.000000  0       5578347.276      -4374909.697       -398901.549
10 0 59949  64080.000000  0       5448985.973      -4451155.617        946222.950
10 0 59949  64260.000000  0       5124406.577      -4361828.832       2257166.458
10 0 59949  64440.000000  0       4620608.699      -4105209.444       3486575.761
10 0 59949  64620.000000  0       3960032.732      -3686128.832       4590078.099
99